Location: Home
(42.5358°N, 72.7383°W)
Time: 18:54:18
(UTC-05:00)

SR - Pass Details

Date: 15 December 2021
Orbit: 582 x 872 km, 66.7° (Epoch: 20 January)

Event Time Altitude Azimuth Distance (km) Brightness Sun altitude
Exits shadow 05:55:28 21° 306° (NW) 1,414 ? -13.9°
Maximum altitude 05:58:05 43° 245° (WSW) 893 ? -13.4°
Drops below altitude 10° 06:02:33 10° 174° (S) 2,096 ? -12.7°
Sets 06:05:02 0° 168° (SSE) 3,056 ? -12.2°
